World > North America > United States > Alabama > Jemison  

Jemison, AL Hourly Weather Updates

Feedback E-mail the Weather

Quick WX

Jemison, AL Weather Maps

°F °C°F °C
Jemison Weather Map
UTC Time: 3/5/2024, 03:04
Your Time:

Jemison, AL Regional Weather

Expires:202403050300;;417686
ASUS44 KBMX 050210
RWRAL 
             
ALABAMA REGIONAL WEATHER ROUNDUP
NATIONAL WEATHER SERVICE BIRMINGHAM AL
800 PM CST MON MAR 04 2024

NOTE: "FAIR" INDICATES FEW OR NO CLOUDS BELOW 12,000 FEET
WITH NO SIGNIFICANT WEATHER AND/OR OBSTRUCTIONS TO VISIBILITY.

THE REMARK "TC" DENOTES TEMPERATURE IN DEGREES CELSIUS.


ALZ015-024>026-033>036-041>044-050300-
CENTRAL ALABAMA
  
CITY           SKY/WX    TMP DP  RH WIND       PRES   REMARKS
BIRMINGHAM     CLOUDY    68  57  68 E9        30.05R TC  20           
MONTGOMERY     CLOUDY    67  60  78 E8        30.02S TC  19           
SHELBY CO ARPT CLOUDY    66  59  78 E7        30.02R TC  19           
MAXWELL AFB    CLOUDY    70  59  69 E6        29.99S TC  21           
GREENVILLE     CLOUDY    65  60  84 SE5       30.02R TC  18           
SELMA          CLOUDY    66  63  88 S5        30.01R TC  19           
PRATTVILLE     CLOUDY    67  58  73 E6        30.01S TC  20           
BESSEMER       CLOUDY    67  59  75 VRB6      30.03R TC  19           
TALLADEGA      CLOUDY    64  59  82 VRB1      30.04S TC  18           
PELL CITY      CLOUDY    64  59  82 CALM      30.05S TC  18           
SYLACAUGA      CLOUDY    64  58  81 E7        30.04S TC  18           
JASPER         CLOUDY    63  63 100 CALM      30.00S TC  17           
$$
 

SKY/WX - Weather  TMP - Temperature  DP - Dew Point  RH - Humidity
WIND - Wind Direction/Speed PRES - Barometric Pressure VSB - Visibility
WCI - Wind Chill Index E13G22 Wind - East Wind 13 mph/Gusts of 22 mph

Trending Headlines

Trending Entertainment Headlines

Jemison Radar Loop

Use the map search tool if you want to place a location marker on the radar map...

Jemison Quick Facts

National Two Day Weather Forecast


E-mail the Jemison Weather Forecast

Voice your opinion or tell us about page issues...